Find Starlink 30369

NORAD ID: 57781 Int'l Des: 2023-134 Owner: SPXS Country: US Constellation: starlink operational
LEOCIRCULAR

現在のビュー

3D地球を読み込み中...

About Starlink 30369

Starlink 30369 (NORAD 57781) is a starlink constellation satellite (v2 mini) launched Sep 4, 2023 by SPXS of US. It operates in LEO, CIRCULAR orbit with a mass of 730.00 kg.

次回通過

Passes for default location (London). Set your location on the main map for personalized predictions.

高度履歴

Loading altitude history...

軌道要素

1 57781U 23134L 26237.29136922 -.00000897 00000-0 -23100-4 0 9991
2 57781 43.0049 322.1861 0000767 278.3623 81.7141 15.27570209165297
Epoch: Aug 25, 2026 • Age: 16 hours

現在のステータス

高度 484.8 km
遠地点 / 近地点 N/A
速度 7.63 km/s
衛星直下点 34.70°N, 47.86°E
打ち上げ日 Sep 4, 2023
運用期間 2.9 years
タイプ internet

技術仕様

分類 Payload
質量 730.00 kg
乾燥質量 700.00 kg
総質量 730.00 kg
長さ 0.30 m
直径 4.10 m
スパン 29.00 m
形状 Box + pan
製造者 SPXS
バスタイプ Starlink V2M
フェーズステータス In Orbit
所有者/国 SPXS/US

Most Searched